Location: Flotzheim
(48.8375°N, 10.8136°E)
Time: 16:44:00
(UTC+00:00)

Cosmos 2112 Rocket - Pass Details

Date: 23 January 2021
Orbit: 757 x 786 km, 74.1° (Epoch: 01 March)

Event Time Altitude Azimuth Distance (km) Brightness Sun altitude
Rises 17:05:52 0° 340° (NNW) 3,255 7.3 -10.8°
Reaches altitude 10° 17:08:24 10° 347° (NNW) 2,320 6.5 -11.2°
Maximum altitude 17:13:24 43° 59° (ENE) 1,068 4.3 -11.9°
Drops below altitude 10° 17:18:20 10° 131° (SE) 2,289 6.1 -12.7°
Sets 17:20:48 0° 138° (SE) 3,208 6.9 -13.1°
